TimeCDT,TemperatureF,Dew PointF,Humidity,Sea Level PressureIn,VisibilityMPH,Wind Direction,Wind SpeedMPH,Gust SpeedMPH,PrecipitationIn,Events,Conditions,WindDirDegrees,DateUTC
12:54 AM,62.6,50.0,63,30.01,10.0,SSW,5.8,-,N/A,,Clear,200,2012-10-23 05:54:00
1:54 AM,64.0,50.0,60,30.01,10.0,SSW,5.8,-,N/A,,Clear,200,2012-10-23 06:54:00
2:54 AM,64.0,48.9,58,30.01,10.0,South,6.9,-,N/A,,Clear,190,2012-10-23 07:54:00
3:54 AM,62.1,48.9,62,30.02,10.0,SSW,5.8,-,N/A,,Clear,200,2012-10-23 08:54:00
4:54 AM,63.0,48.0,58,30.03,10.0,South,5.8,-,N/A,,Partly Cloudy,190,2012-10-23 09:54:00
5:54 AM,63.0,48.0,58,30.03,10.0,SSW,8.1,-,N/A,,Clear,200,2012-10-23 10:54:00
6:54 AM,62.6,48.2,59,30.05,10.0,SSW,8.1,-,N/A,,Clear,200,2012-10-23 11:54:00
7:27 AM,62.6,48.2,59,30.05,10.0,South,8.1,-,N/A,,Partly Cloudy,190,2012-10-23 12:27:00
7:54 AM,62.1,50.0,65,30.06,10.0,SSW,8.1,-,N/A,,Clear,200,2012-10-23 12:54:00
8:54 AM,64.9,50.0,58,30.07,10.0,SSW,8.1,-,N/A,,Clear,200,2012-10-23 13:54:00
9:54 AM,69.1,52.0,54,30.07,10.0,SSW,10.4,-,N/A,,Clear,210,2012-10-23 14:54:00
10:54 AM,72.0,54.0,53,30.07,10.0,SSW,12.7,-,N/A,,Partly Cloudy,210,2012-10-23 15:54:00
11:54 AM,73.9,55.0,52,30.06,10.0,SSW,9.2,-,N/A,,Scattered Clouds,200,2012-10-23 16:54:00
12:54 PM,77.0,57.0,50,30.04,10.0,SW,13.8,-,N/A,,Partly Cloudy,220,2012-10-23 17:54:00
1:54 PM,77.0,55.0,47,30.01,10.0,South,10.4,-,N/A,,Clear,190,2012-10-23 18:54:00
2:54 PM,75.9,55.0,48,29.99,10.0,SSW,10.4,18.4,N/A,,Clear,210,2012-10-23 19:54:00
3:54 PM,75.0,55.0,50,29.98,10.0,South,6.9,-,N/A,,Scattered Clouds,190,2012-10-23 20:54:00
4:54 PM,78.1,54.0,43,29.97,10.0,SSE,5.8,-,N/A,,Mostly Cloudy,160,2012-10-23 21:54:00
5:54 PM,75.0,54.0,48,29.97,10.0,South,6.9,-,N/A,,Mostly Cloudy,190,2012-10-23 22:54:00
6:54 PM,73.0,52.0,48,29.99,10.0,South,5.8,-,N/A,,Clear,170,2012-10-23 23:54:00
7:54 PM,72.0,52.0,49,29.99,10.0,SSE,6.9,-,N/A,,Clear,160,2012-10-24 00:54:00
8:54 PM,69.1,52.0,54,30.00,10.0,SE,3.5,-,N/A,,Clear,140,2012-10-24 01:54:00
9:54 PM,68.0,51.1,55,30.01,10.0,South,5.8,-,N/A,,Clear,180,2012-10-24 02:54:00
10:54 PM,66.9,51.1,57,30.01,10.0,South,4.6,-,N/A,,Clear,170,2012-10-24 03:54:00
11:54 PM,64.9,50.0,58,30.02,10.0,South,5.8,-,N/A,,Clear,190,2012-10-24 04:54:00